User: anonymous   Login
Location: Unspecified
(0.0000°N, 0.0000°E)
Time: 09:50:13
(UTC+02:00)
Language:

Landsat 4 - Orbit

View from above orbital plane
View from above orbital plane
View from above satellite
View from above satellite

Ground track
Ground track

The orbit data is extracted from the following two-line orbital elements,

1 13367U 82072A   15245.90663432 +.00001544 +00000-0 +89840-4 0  9996
2 13367 098.1825 345.8173 0012646 261.2894 219.7257 15.13718139211429
Epoch (UTC): 02 September 2015 21:45:33
Eccentricity: 0.0012646
inclination: 98.1825°
perigee height: 516 km
apogee height: 533 km
right ascension of ascending node: 345.8173°
argument of perigee: 261.2894°
revolutions per day: 15.13718139
mean anomaly at epoch: 219.7257°
orbit number at epoch: 21142

The dashed part of the orbit path shows where the satellite is in the earth's shadow,  

DLR